Victoria, British Columbia

7:24 AM PST on December 11, 2016 (GMT -0800)
Victoria International

Weather History for CYYJ - June, 2013

Change the Weather History Date:

Saturday, June 29, 2013

  Actual Average Record
Temperature  
Mean Temperature 68 °F -  
Max Temperature 77 °F 71 °F 86 °F (2008)
Min Temperature 59 °F 51 °F 44 °F (2010)
Cooling Degree Days 3    
Growing Degree Days 18 (Base 50)    
Moisture  
Dew Point 55 °F    
Average Humidity 66    
Maximum Humidity 82    
Minimum Humidity 44    
Precipitation  
Precipitation 0.00 in 0.02 in - ()
Sea Level Pressure  
Sea Level Pressure 30.07 in    
Wind  
Wind Speed 4 mph ()    
Max Wind Speed 12 mph    
Max Gust Speed -    
Averages and records for this station are not official NWS values.
T = Trace of Precipitation, MM = Missing Value Source: Averaged Metar Reports

Daily Weather History Graph

Daily Weather History Graph

Search for Another Location

Airport or City:

Trip Planner

Search our weather history database for the weather conditions in past years. The results will help you decide how hot, cold, wet, or windy it might be!

Date:

Astronomy

Jun. 29, 2013 Rise Set
Actual Time 5:14 AM PDT 9:19 PM PDT
Civil Twilight 4:32 AM PDT 10:01 PM PDT
Nautical Twilight 3:33 AM PDT 11:01 PM PDT
Astronomical Twilight 1:37 AM PDT 12:53 AM PDT
Moon 12:15 AM PDT (6/29) 1:10 PM PDT (6/29)
Length of Visible Light 17h 29m
Length of Day
16h 05m
Waning Gibbous, 54% of the Moon is Illuminated
Jun 29
Waning Gibbous
Jun 29
Last Quarter
Jul 8
New
Jul 15
First Quarter
Jul 22
Full

Hourly Weather History & Observations

Time (PDT) Temp. Dew Point Humidity Pressure Visibility Wind Dir Wind Speed Gust Speed Precip Events Conditions
12:00 AM 62.6 °F 55.4 °F 77% 30.10 in 30.0 mi South 2.3 mph - N/A   Mostly Cloudy
1:00 AM 60.8 °F 55.4 °F 82% 30.10 in 30.0 mi Calm Calm - N/A   Overcast
2:00 AM 62.6 °F 57.2 °F 82% 30.10 in 30.0 mi WNW 2.3 mph - N/A   Overcast
3:00 AM 62.6 °F 57.2 °F 82% 30.10 in 30.0 mi West 4.6 mph - N/A Rain Light Rain
4:00 AM 62.6 °F 57.2 °F 82% 30.10 in 30.0 mi West 4.6 mph - N/A   Overcast
4:49 AM 62.6 °F - N/A% - 30.0 mi WSW 2.3 mph - N/A Rain Light Rain
5:00 AM 63 °F 56 °F 73% 30.10 in 28 mi Calm Calm - - Rain Light Rain
5:00 AM 62.6 °F 57.2 °F 82% 30.10 in 30.0 mi Calm Calm - N/A   Mostly Cloudy
6:00 AM 60.8 °F 55.4 °F 82% 30.10 in 30.0 mi WSW 3.5 mph - N/A   Scattered Clouds
7:00 AM 60.8 °F 55.4 °F 82% 30.10 in 30.0 mi East 5.8 mph - N/A Fog Partly Cloudy
8:00 AM 62.6 °F 53.6 °F 72% 30.10 in 30.0 mi SE 4.6 mph - N/A   Mostly Cloudy
9:00 AM 69.8 °F 57.2 °F 64% 30.10 in 30.0 mi NNE 2.3 mph - N/A   Mostly Cloudy
10:00 AM 71.6 °F 57.2 °F 60% 30.09 in 30.0 mi ESE 4.6 mph - N/A   Mostly Cloudy
11:00 AM 71 °F 58 °F 55% 30.08 in 28 mi East 5.8 mph - -   Scattered Clouds
11:00 AM 71.6 °F 59.0 °F 64% 30.08 in 30.0 mi East 5.8 mph - N/A   Mostly Cloudy
12:00 PM 71.6 °F 59.0 °F 64% 30.09 in 30.0 mi ESE 5.8 mph - N/A   Mostly Cloudy
1:00 PM 71.6 °F 57.2 °F 60% 30.09 in 30.0 mi SE 6.9 mph - N/A   Mostly Cloudy
2:00 PM 73.4 °F 55.4 °F 53% 30.08 in 30.0 mi SE 9.2 mph - N/A   Mostly Cloudy
3:00 PM 75.2 °F 57.2 °F 53% 30.06 in 30.0 mi ESE 11.5 mph - N/A   Mostly Cloudy
4:00 PM 73.4 °F 55.4 °F 53% 30.05 in 30.0 mi ESE 10.4 mph - N/A   Scattered Clouds
5:00 PM 74 °F 57 °F 44% 30.03 in 28 mi ESE 10.4 mph - -   Scattered Clouds
5:00 PM 75.2 °F 57.2 °F 53% 30.03 in 30.0 mi ESE 10.4 mph - N/A   Mostly Cloudy
6:00 PM 73.4 °F 55.4 °F 53% 30.02 in 30.0 mi ESE 5.8 mph - N/A   Mostly Cloudy
7:00 PM 68.0 °F 51.8 °F 56% 30.01 in 30.0 mi ESE 4.6 mph - N/A   Mostly Cloudy
8:00 PM 64.4 °F 50.0 °F 59% 30.00 in 30.0 mi East 5.8 mph - N/A   Partly Cloudy
9:00 PM 60.8 °F 50.0 °F 68% 30.01 in 30.0 mi ESE 2.3 mph - N/A   Partly Cloudy
10:00 PM 60.8 °F 50.0 °F 68% 30.02 in 30.0 mi East 3.5 mph - N/A   Partly Cloudy
11:00 PM 59 °F 51 °F 66% 30.01 in 28 mi ENE 2.3 mph - -   Clear
11:00 PM 59.0 °F 50.0 °F 72% 30.01 in 30.0 mi ENE 2.3 mph - N/A   Partly Cloudy